Miscellaneous Local Product
Issued by NWS North Platte, NE

Home | Current Version | Previous Version | Graphics & Text | Print | Product List | Glossary On
Versions: 1 2 3 4 5 6 7 8 9 10 11 12 13 14 15 16 17 18 19 20 21 22 23 24 25 26 27 28 29 30 31 32 33 34 35 36 37 38 39 40 41 42 43 44 45 46 47 48 49 50
000
AXUS43 KLBF 302310
MISLBF


WESTERN AND NORTH CENTRAL NEBRASKA HOURLY WEATHER ROUNDUP
NATIONAL WEATHER SERVICE NORTH PLATTE NE
500 PM CST FRI JAN 30 2015

***STATIONS NOT REPORTING VARIABLES SUCH AS SKY/WEATHER OR
PRESSURE ARE PROVIDED BY THE NEBRASKA DEPARTMENT OF
ROADS...RAWS...AND APRS NETWORKS...AND ARE NOT UNDER
NATIONAL WEATHER SERVICE QUALITY CONTROL***

...OBSERVATIONS IN AND NEAR THE EASTERN PANHANDLE OF NEBRASKA...

CITY           SKY/WX    TMP DP  RH WIND       PRES   REMARKS
PINE RIDGE     PTCLDY    46  26  45 N9        30.12S
CHADRON        MOCLDY    46  28  49 NE10      30.11F
ALLIANCE       CLOUDY    44  28  53 E3        30.09F
SIDNEY         CLOUDY    44  28  53 NE6       30.09S
WHITECLAY        N/A     45  25  45 N7          N/A
CRESCENT LAKE    N/A     44  27  51 E3          N/A
LISCO            N/A     46  23  41 CALM        N/A
LEWELLEN         N/A     48  26  41 E3          N/A
$$

...OBSERVATIONS IN NORTH CENTRAL NEBRASKA...

CITY           SKY/WX    TMP DP  RH WIND       PRES   REMARKS
VALENTINE      PTCLDY    49  27  42 S9        30.11F
THEDFORD       MOCLDY    48  29  49 S8        30.14S
AINSWORTH      PTCLDY    47  25  43 S6        30.14S
O`NEILL        PTCLDY    45  28  50 S13       30.18R
ORD            MOCLDY    42  24  49 S14       30.18F
BROKEN BOW     CLOUDY    45  27  49 S14G25    30.18F
BROWNLEE         N/A     48  27  44 S7          N/A
VALENTINE NWR    N/A     50  26  39 SW12        N/A
SPRINGVIEW       N/A     51  28  40 SW5         N/A
HALSEY           N/A     47  26  43 S8G16       N/A
BREWSTER         N/A     46  28  48 S7          N/A
ROSE             N/A     46  29  51 SE9         N/A
NEWPORT          N/A     44  26  49 S10         N/A
SARGENT          N/A     43  28  54 S3          N/A
COMSTOCK         N/A     44  26  48 S12         N/A
EWING            N/A     43  30  59 S8          N/A
$$

...OBSERVATIONS IN SOUTHWEST NEBRASKA AND FAR NORTHEAST COLORADO...

CITY           SKY/WX    TMP DP  RH WIND       PRES   REMARKS
WRAY           FAIR      47  32  56 S14G21    30.12R
IMPERIAL       CLOUDY    48  29  47 S17G24    30.12F
OGALLALA       CLOUDY    50  34  53 S13G18    30.10S
NORTH PLATTE   CLOUDY    46  27  47 S14       30.15S
MCCOOK         CLOUDY    43  35  73 SE14      30.19F
LEXINGTON      CLOUDY    46  26  47 S18       30.20F
BRADY            N/A     44  28  53 CALM        N/A
GOTHENBURG       N/A     44  25  47 S9          N/A
CALLAWAY         N/A     42  29  61 S15         N/A
$$

...NORTH PLATTE AREA...

CITY           SKY/WX    TMP DP  RH WIND       PRES   REMARKS
AIRPORT        CLOUDY    46  27  47 S14       30.15S
DOWNTOWN         N/A     46  29  51 SE5         N/A
$$

...SOME WEATHER OBSERVATIONS FROM AROUND THE REGION...

CITY           SKY/WX    TMP DP  RH WIND       PRES   REMARKS
DENVER         CLOUDY    46  27  47 N8        30.07S
LARAMIE        CLOUDY    36  29  75 NE6       30.09S WCI  31
CHEYENNE       CLOUDY    41  24  51 NE10      30.09S
SCOTTSBLUFF    CLOUDY    44  30  57 CALM      30.10S
RAPID CITY     PTCLDY    48  26  42 N17       30.12S
PIERRE         PTCLDY    44  24  45 W3        30.11F
WINNER         FAIR      54  26  34 SW7       30.11F
SIOUX FALLS    MOCLDY    37  28  70 S15       30.20F WCI  28
OMAHA          MOCLDY    35  24  64 SE12      30.34F WCI  27
GRAND ISLAND   CLOUDY    43  25  49 S13       30.26F
KANSAS CITY    CLOUDY    37  19  48 SE5       30.41F WCI  33
WICHITA        CLOUDY    42  25  50 S7        30.39F
HAYS           CLOUDY    43  25  49 S13       30.31S
LIBERAL        CLOUDY    39  27  60 S15       30.30S WCI  31
GOODLAND       CLOUDY    41  32  70 S21G26    30.16S
$$



USA.gov is the U.S. government's official web portal to all federal, state and local government web resources and services.